Temperature
16 16 16 16 16 16 16 16 16 15 14 13 13 13 13 13 13 13 13 13 13 13 13 13 13 13 13 13 13 12 12 12 12 12 12 12 12 12
16 16 16 16 16 16 16 15 15 15 14 13 13 13 13 13 12 12 12 12 13 13 13 12 12 12 12 12 12 12 12 12 12 12 12 12 12 12
16 16 16 16 15 15 15 15 15 15 14 13 13 13 12 12 12 12 12 12 12 12 12 12 12 12 12 12 11 11 11 11 11 11 11 11 11 11
15 15 15 15 15 15 15 15 14 14 14 13 13 12 12 12 12 12 12 11 11 11 11 11 11 11 11 11 11 11 11 10 10 10 10 10 10 10
15 15 15 15 15 14 14 14 14 14 14 13 13 12 12 12 12 12 11 11 11 11 11 11 11 10 10 10 10 10 10 10 10 10 10 10 10 10
15 15 15 14 14 14 14 14 14 13 13 13 13 12 12 12 12 12 11 11 11 10 10 10 10 10 10 10 10 9 9 9 9 9 9 9 9 9
15 14 14 14 14 14 14 13 13 13 13 13 13 12 12 12 11 11 11 11 10 10 10 10 10 9 9 9 9 9 9 9 9 9 9 8 8 8
14 14 14 14 14 14 14 13 13 13 13 13 13 12 12 12 11 11 11 11 10 10 10 10 10 9 9 9 9 9 9 9 8 8 8 8 8 8
14 13 14 13 13 13 13 13 13 13 13 12 12 12 12 11 11 11 11 11 10 10 10 10 10 9 9 9 9 8 8 8 8 8 8 8 8 8
13 13 13 13 13 13 13 12 12 12 12 12 11 11 11 11 11 11 10 10 10 10 10 10 9 9 9 9 8 8 8 8 8 8 8 7 7 7
13 13 13 13 13 13 12 12 12 12 12 12 11 11 11 11 11 11 11 11 11 10 10 10 10 9 9 9 8 8 8 8 8 8 7 7 7 7
13 13 13 13 13 12 12 12 11 11 11 11 11 11 11 10 10 10 10 11 11 10 9 10 10 10 9 9 9 8 8 8 8 8 7 7 7 7
13 13 13 13 12 12 12 11 11 11 11 11 11 11 10 10 10 10 10 10 10 10 10 9 10 9 10 9 9 8 8 8 8 7 7 7 7 7
13 12 12 12 12 12 12 12 11 11 11 11 11 11 11 10 10 10 9 9 9 9 9 9 9 9 9 9 9 9 8 8 8 8 7 7 7 7
12 12 12 12 12 11 11 11 11 11 11 11 11 11 10 10 10 9 9 9 9 9 9 9 9 9 9 9 9 9 9 8 8 8 7 7 7 7
12 12 12 12 11 11 11 11 11 11 11 11 10 10 10 10 10 10 9 9 9 9 9 9 8 8 9 9 9 9 9 8 8 8 7 7 7 7
12 11 11 11 11 11 11 11 11 10 10 10 10 10 10 10 10 9 9 9 10 9 9 9 9 8 8 8 9 9 8 8 8 8 7 8 7 7
11 11 11 11 11 11 11 11 11 10 10 10 10 10 10 10 10 9 9 9 9 9 9 9 9 9 9 8 8 8 8 8 8 8 7 8 8 7
11 11 11 11 11 11 11 11 11 10 10 10 10 10 10 10 10 9 9 9 9 9 9 9 9 9 9 9 8 8 8 8 8 8 8 8 8 7
11 11 11 11 11 11 11 11 10 10 10 10 10 10 9 10 9 9 9 9 9 9 9 9 9 8 9 9 9 8 8 8 8 8 8 7 7 7
11 11 11 11 11 10 10 10 10 10 10 9 9 9 9 9 9 9 9 9 9 9 9 9 8 8 8 8 8 8 8 7 7 7 7 7 7 7
11 11 11 10 10 10 10 10 10 9 9 9 9 9 9 9 9 9 9 9 9 9 9 9 8 8 8 8 8 8 8 7 7 7 7 7 7 7
11 11 10 10 10 10 10 9 9 9 9 9 9 9 9 9 9 9 9 9 9 9 8 8 8 8 8 8 8 8 8 8 7 7 7 7 6 6
Wind_Speed
2 2 1 1 0 0 1 2 2 2 2 2 2 4 5 8 8 9 10 14 14 14 14 14 14 13 13 13 12 12 11 11 10 9 9 7 5 3
2 3 2 1 1 1 0 1 1 2 2 2 3 3 5 6 8 9 10 14 15 14 14 14 14 14 14 14 14 13 13 13 12 11 11 11 10 8
3 3 3 2 1 1 1 1 2 3 5 3 4 4 4 5 5 6 8 9 12 13 13 14 14 14 14 14 13 13 13 13 12 12 12 12 12 11
4 4 3 2 2 2 2 2 3 3 5 6 4 3 4 4 5 4 6 7 10 13 13 14 14 13 13 13 13 13 13 12 12 12 12 12 12 12
4 4 3 3 2 2 2 3 3 4 5 6 5 3 3 3 4 5 5 5 7 11 12 12 12 13 13 12 12 13 12 12 12 12 12 12 12 12
4 4 4 4 3 2 3 3 4 5 5 5 5 5 4 3 3 4 4 4 4 5 7 8 10 11 12 12 12 11 11 12 12 13 13 13 12 12
4 4 5 6 7 5 3 3 3 3 4 5 5 4 4 3 2 2 4 4 4 3 3 4 6 6 8 10 10 10 10 10 10 11 11 11 11 11
4 4 5 5 6 7 7 7 5 3 3 3 4 4 3 3 2 2 3 3 3 2 2 3 3 4 5 7 8 8 8 8 8 8 8 8 9 9
4 3 4 5 4 4 6 7 7 6 3 1 3 3 4 3 2 3 3 2 2 2 1 2 2 3 4 7 9 6 6 5 5 5 5 5 5 6
4 4 4 4 3 2 4 6 6 5 4 3 3 2 3 2 2 2 3 3 3 3 1 1 2 2 3 6 9 7 5 4 3 3 2 2 2 2
4 4 4 4 4 3 4 5 6 5 7 7 5 5 5 3 1 2 3 3 3 3 1 1 1 1 2 3 8 9 8 6 5 4 3 2 2 3
4 4 5 4 3 3 3 4 4 4 4 5 6 6 6 6 4 1 1 1 2 2 2 1 1 1 1 2 3 6 7 8 8 7 6 4 4 4
3 3 4 4 3 2 0 2 3 2 3 3 4 4 4 3 3 2 0 1 1 1 2 2 1 2 2 1 2 2 3 3 5 6 8 8 6 5
2 2 4 5 3 1 1 2 2 3 2 2 3 3 3 2 2 1 1 1 1 1 0 1 2 2 3 2 1 2 2 2 2 2 2 7 9 8
2 5 4 4 4 3 4 3 4 3 2 2 2 2 2 2 2 3 3 3 2 2 2 1 2 2 4 4 2 2 2 2 2 2 2 3 3 4
4 5 5 4 3 2 4 4 4 2 2 2 2 2 2 2 2 1 2 2 2 2 2 2 3 3 4 3 3 2 2 2 2 2 3 3 4 4
4 4 4 4 4 4 4 3 3 3 3 3 3 3 3 3 2 2 1 2 2 2 2 2 4 4 4 4 3 3 3 3 2 2 4 4 4 4
4 4 4 4 4 4 4 4 4 4 3 3 3 3 3 3 3 2 2 3 2 2 2 2 3 3 4 4 3 4 3 3 2 3 5 5 4 3
6 5 5 4 4 4 4 4 4 3 3 3 3 3 3 3 3 3 3 3 3 3 3 2 3 3 5 4 4 5 4 3 4 4 4 5 5 4
6 6 5 5 5 4 4 4 3 3 4 4 4 3 3 4 4 4 4 3 3 3 3 2 3 4 5 5 4 4 7 5 5 5 5 6 5 3
6 6 5 5 5 4 4 4 4 4 4 4 4 4 4 4 4 4 4 3 4 4 4 4 2 4 6 5 6 4 3 7 6 5 6 7 6 6
6 6 5 5 5 4 4 5 5 4 4 5 4 4 5 5 5 5 4 4 4 4 5 4 3 4 5 6 7 6 4 4 7 10 9 8 6 7
6 6 5 5 5 5 5 6 6 5 5 5 4 4 5 4 4 4 4 4 4 5 5 5 4 4 5 6 6 6 5 5 5 5 7 9 11 11
Wind_Direction
356 5 351 30 14 246 186 203 217 185 123 99 84 61 72 72 66 75 76 75 77 77 76 75 74 72 70 69 66 63 64 64 63 61 58 56 55 50
29 33 20 36 45 46 107 183 225 171 139 108 89 81 79 88 83 83 86 87 79 79 79 78 76 74 72 70 68 66 66 68 67 63 60 58 58 57
41 51 50 37 45 79 94 109 111 125 131 118 105 99 97 90 88 88 93 91 88 84 83 80 76 74 72 71 70 69 67 67 66 65 63 61 60 60
43 48 45 60 67 60 84 102 104 112 133 130 123 111 99 95 94 91 91 91 95 94 91 84 78 75 74 72 70 69 68 68 68 66 63 61 62 62
43 43 43 54 62 74 77 93 106 114 123 132 130 116 108 106 109 106 101 97 101 113 109 98 89 83 79 75 73 72 71 71 70 69 66 62 60 61
44 44 44 51 63 87 100 104 111 121 131 134 131 129 123 125 131 126 119 108 93 95 94 103 110 103 92 83 78 76 75 74 73 73 72 69 66 64
56 55 58 56 44 42 64 94 117 130 137 137 134 130 125 133 137 139 123 122 116 105 117 119 125 112 105 96 83 75 77 79 76 76 75 73 70 67
64 68 89 84 82 73 63 64 66 107 127 137 133 139 143 144 149 155 136 134 125 120 131 116 112 102 102 91 91 87 83 84 83 80 77 75 73 70
65 56 64 82 95 105 114 119 89 74 76 133 132 137 145 147 168 166 147 138 102 114 151 113 115 113 116 106 115 109 101 95 92 92 88 85 80 79
76 73 73 74 63 78 108 103 99 90 83 103 113 124 123 138 177 164 149 146 144 126 148 138 120 123 120 127 140 141 137 130 124 121 124 120 122 112
88 76 78 88 45 12 115 114 110 110 100 96 93 107 112 122 145 165 156 168 148 135 139 241 141 151 151 148 156 167 169 169 171 173 178 200 251 233
117 105 75 77 65 17 121 121 116 108 109 120 128 143 144 143 158 186 196 196 175 158 144 237 188 209 182 163 162 171 183 187 191 192 197 215 259 271
136 125 101 102 100 40 346 122 121 146 143 143 143 144 146 146 159 153 269 273 258 241 144 218 244 251 262 196 187 180 189 183 195 200 201 207 229 270
138 122 108 115 122 134 148 117 180 227 178 151 145 148 159 163 162 176 156 293 323 317 129 238 266 275 276 269 235 199 210 205 217 229 213 201 218 228
115 84 106 155 175 165 158 187 208 205 180 173 165 164 159 137 167 170 169 173 174 173 151 231 273 270 273 281 276 244 239 229 228 257 263 246 245 242
159 145 163 192 207 151 169 190 207 200 203 196 183 171 161 162 182 174 178 189 191 159 154 196 249 265 265 277 280 268 258 258 250 269 285 279 261 255
171 184 189 188 191 189 193 198 200 190 204 208 194 188 187 188 185 177 198 226 231 222 205 208 220 236 250 266 261 263 265 261 259 264 271 274 269 260
203 202 204 206 207 205 205 199 202 206 212 216 212 210 208 205 202 201 215 234 239 239 234 228 229 229 231 214 242 262 261 265 270 260 272 279 280 277
211 214 215 217 221 222 221 219 212 198 216 225 226 222 220 216 213 216 225 233 243 244 241 236 245 256 261 254 206 226 267 277 275 273 275 281 283 286
218 223 219 218 225 232 226 221 213 202 207 222 224 226 229 228 226 228 230 240 247 252 253 245 249 260 272 285 282 238 222 254 272 278 282 280 282 275
218 224 226 227 225 224 225 222 222 220 217 225 225 228 232 234 237 239 236 215 253 260 261 258 253 252 268 271 269 262 228 213 241 275 287 289 288 280
222 224 225 229 228 226 222 223 223 219 213 223 226 226 230 234 236 242 250 245 246 259 267 265 236 245 258 264 270 272 266 240 230 235 245 257 288 293
226 228 226 222 221 224 225 224 225 221 217 224 226 226 232 236 243 246 246 255 261 267 270 269 264 261 267 268 271 276 275 267 265 254 248 229 233 247
Height
1541 1541 1541 1541 1541 1541 1542 1542 1543 1544 1545 1546 1546 1546 1546 1545 1545 1544 1544 1543 1543 1542 1541 1540 1540 1539 1538 1538 1537 1537 1537 1536 1536 1536 1535 1535 1535 1534
1540 1540 1539 1540 1540 1540 1540 1541 1541 1542 1543 1544 1545 1546 1546 1546 1545 1545 1544 1544 1543 1542 1542 1541 1540 1539 1539 1538 1537 1537 1536 1536 1535 1535 1534 1534 1534 1533
1540 1539 1539 1539 1539 1539 1539 1540 1540 1541 1542 1543 1544 1545 1545 1546 1546 1546 1546 1545 1544 1543 1543 1542 1541 1540 1539 1539 1538 1537 1536 1536 1535 1535 1534 1533 1532 1532
1540 1539 1539 1539 1538 1539 1539 1539 1540 1540 1541 1542 1544 1545 1545 1546 1546 1546 1547 1547 1545 1544 1544 1543 1542 1541 1540 1540 1538 1538 1537 1536 1535 1535 1534 1533 1532 1531
1540 1539 1539 1538 1538 1538 1538 1539 1540 1540 1541 1542 1543 1544 1545 1546 1546 1547 1547 1547 1547 1546 1545 1544 1543 1542 1541 1540 1539 1538 1537 1537 1536 1535 1534 1533 1532 1531
1540 1539 1539 1538 1538 1538 1539 1539 1539 1540 1541 1542 1543 1544 1545 1546 1546 1547 1548 1548 1548 1548 1546 1546 1545 1543 1542 1541 1540 1539 1539 1538 1536 1536 1534 1534 1533 1532
1540 1540 1539 1538 1538 1538 1539 1539 1539 1540 1541 1542 1543 1544 1545 1546 1547 1547 1548 1548 1547 1548 1548 1547 1547 1545 1544 1543 1542 1541 1539 1538 1537 1536 1535 1534 1534 1533
1541 1540 1539 1538 1538 1538 1538 1538 1539 1539 1541 1542 1543 1543 1544 1545 1546 1547 1547 1548 1548 1548 1548 1548 1547 1547 1546 1544 1543 1542 1540 1539 1538 1537 1536 1535 1534 1534
1541 1540 1540 1539 1539 1539 1539 1539 1539 1539 1540 1541 1542 1543 1544 1544 1545 1546 1547 1547 1547 1547 1547 1547 1547 1547 1546 1544 1543 1542 1541 1540 1539 1538 1537 1537 1536 1535
1541 1541 1540 1539 1539 1539 1540 1539 1539 1539 1540 1541 1542 1542 1543 1544 1544 1545 1545 1545 1546 1546 1547 1547 1547 1547 1547 1545 1544 1543 1542 1541 1540 1539 1538 1537 1536 1535
1542 1541 1541 1540 1539 1539 1540 1540 1540 1540 1540 1540 1541 1541 1542 1543 1543 1545 1545 1545 1546 1546 1546 1547 1547 1546 1546 1545 1544 1543 1542 1541 1540 1539 1539 1538 1537 1535
1542 1541 1541 1540 1540 1540 1541 1541 1540 1541 1542 1541 1541 1541 1542 1542 1543 1543 1544 1545 1545 1546 1545 1545 1545 1545 1545 1545 1544 1543 1542 1541 1540 1539 1538 1538 1537 1536
1543 1542 1541 1541 1540 1540 1540 1541 1541 1541 1542 1542 1542 1542 1542 1542 1542 1542 1543 1543 1544 1544 1544 1543 1544 1544 1544 1544 1543 1543 1542 1541 1540 1539 1538 1537 1536 1535
1541 1541 1541 1540 1540 1540 1540 1540 1540 1540 1541 1542 1542 1542 1542 1542 1542 1541 1541 1541 1541 1542 1541 1542 1542 1542 1542 1542 1542 1541 1541 1540 1539 1539 1538 1536 1535 1534
1540 1539 1539 1539 1539 1539 1539 1539 1540 1540 1541 1541 1541 1541 1541 1540 1540 1540 1540 1540 1540 1540 1540 1540 1541 1541 1541 1540 1540 1539 1539 1539 1538 1537 1536 1536 1535 1534
1538 1538 1538 1538 1538 1538 1538 1538 1539 1539 1539 1540 1540 1540 1539 1539 1539 1539 1539 1539 1539 1539 1539 1539 1538 1538 1538 1538 1538 1538 1537 1537 1536 1535 1534 1534 1533 1532
1536 1536 1537 1537 1537 1537 1537 1537 1538 1538 1538 1538 1538 1538 1538 1538 1538 1538 1538 1538 1538 1538 1537 1537 1536 1536 1536 1536 1536 1536 1535 1535 1534 1533 1532 1532 1531 1530
1534 1534 1535 1535 1536 1536 1536 1536 1536 1536 1536 1536 1536 1536 1536 1536 1536 1536 1536 1536 1535 1535 1535 1535 1534 1534 1534 1533 1534 1533 1533 1533 1532 1530 1530 1529 1528 1527
1531 1532 1532 1533 1533 1533 1533 1533 1533 1533 1533 1534 1534 1534 1534 1534 1534 1533 1533 1533 1533 1533 1532 1532 1532 1532 1531 1530 1530 1530 1530 1529 1529 1528 1527 1526 1525 1524
1528 1529 1529 1529 1530 1530 1530 1530 1531 1531 1530 1531 1531 1531 1531 1531 1531 1531 1531 1530 1530 1530 1530 1529 1529 1529 1528 1528 1527 1527 1526 1526 1526 1525 1524 1523 1522 1521
1524 1525 1525 1526 1526 1526 1526 1527 1527 1527 1527 1528 1528 1528 1528 1528 1528 1528 1528 1527 1527 1527 1527 1526 1526 1525 1525 1525 1524 1523 1523 1522 1522 1521 1521 1520 1518 1517
1521 1521 1521 1522 1522 1522 1522 1522 1523 1524 1524 1524 1524 1524 1525 1525 1525 1525 1525 1525 1525 1524 1524 1523 1523 1522 1522 1521 1520 1519 1519 1519 1518 1517 1516 1516 1515 1513
1517 1517 1517 1517 1517 1518 1518 1518 1519 1520 1520 1520 1521 1521 1522 1522 1522 1522 1522 1522 1521 1521 1521 1520 1520 1519 1518 1518 1517 1516 1515 1515 1514 1513 1512 1511 1510 1509